Laurens, SC

10:55 AM EDT on June 29, 2017 (GMT -0400)
Laurens

Weather History for KLUX - November, 2013

Change the Weather History Date:

Saturday, November 2, 2013

  Actual Average (KGSP) Record (KGSP)
Temperature  
Mean Temperature 60 °F -  
Max Temperature 71 °F 70 °F 85 °F (1974)
Min Temperature 50 °F 47 °F 25 °F (1954)
Degree Days  
Heating Degree Days 4    
Growing Degree Days 10 (Base 50)    
Moisture  
Dew Point 44 °F    
Average Humidity 60    
Maximum Humidity 100    
Minimum Humidity 29    
Precipitation  
Precipitation 0.01 in - - ()
Sea Level Pressure  
Sea Level Pressure 29.86 in    
Wind  
Wind Speed 5 mph (WNW)    
Max Wind Speed 16 mph    
Max Gust Speed 30 mph    
Visibility 9 miles    
Events Rain    
Averages and records for this station are not official NWS values.
T = Trace of Precipitation, MM = Missing Value Source: NWS Daily Summary

Daily Weather History Graph

Daily Weather History Graph

Search for Another Location

Airport or City:

Trip Planner

Search our weather history database for the weather conditions in past years. The results will help you decide how hot, cold, wet, or windy it might be!

Date:

Astronomy

Nov. 02, 2013 Rise Set
Actual Time 7:49 AM EDT 6:33 PM EDT
Civil Twilight 7:23 AM EDT 6:59 PM EDT
Nautical Twilight 6:53 AM EDT 7:28 PM EDT
Astronomical Twilight 6:23 AM EDT 7:58 PM EDT
Moon 6:46 AM EDT (11/2) 6:02 PM EDT (11/2)
Length of Visible Light 11h 36m
Length of Day
10h 43m
Waning Crescent, 1% of the Moon is Illuminated
Nov 2
Waning Crescent
Nov 3
New
Nov 10
First Quarter
Nov 17
Full
Nov 25
Last Quarter

Hourly Weather History & Observations

Time (EDT) Temp. Dew Point Humidity Pressure Visibility Wind Dir Wind Speed Gust Speed Precip Events Conditions
12:15 AM 60.8 °F - N/A% 29.77 in 7.0 mi West 5.8 mph - N/A   Mostly Cloudy
12:35 AM 60.8 °F - N/A% 29.77 in 5.0 mi SW 6.9 mph - N/A   Haze
12:55 AM 60.8 °F - N/A% 29.77 in 4.0 mi WSW 4.6 mph - N/A   Haze
1:15 AM 60.8 °F - N/A% 29.77 in 3.0 mi WSW 3.5 mph - N/A   Overcast
1:35 AM 60.8 °F - N/A% 29.78 in 1.5 mi WSW 4.6 mph - N/A   Overcast
1:55 AM 59.0 °F - N/A% 29.78 in 4.0 mi WSW 4.6 mph - N/A   Haze
2:15 AM 59.0 °F - N/A% 29.78 in 5.0 mi West 5.8 mph - N/A   Haze
2:35 AM 59.0 °F - N/A% 29.78 in 7.0 mi West 3.5 mph - N/A   Clear
2:55 AM 57.2 °F - N/A% 29.78 in 7.0 mi West 4.6 mph - N/A   Clear
3:15 AM 57.2 °F - N/A% 29.78 in 10.0 mi West 4.6 mph - N/A   Clear
3:35 AM 55.4 °F - N/A% 29.78 in 7.0 mi West 5.8 mph - N/A   Clear
3:55 AM 55.4 °F - N/A% 29.79 in 10.0 mi West 4.6 mph - N/A   Clear
4:15 AM 55.4 °F - N/A% 29.79 in 10.0 mi West 4.6 mph - N/A   Clear
4:35 AM 55.4 °F - N/A% 29.80 in 10.0 mi West 4.6 mph - N/A   Clear
4:55 AM 53.6 °F - N/A% 29.80 in 10.0 mi WNW 5.8 mph - N/A   Clear
5:15 AM 53.6 °F - N/A% 29.80 in 10.0 mi WNW 5.8 mph - N/A   Clear
5:35 AM 53.6 °F - N/A% 29.80 in 10.0 mi WNW 5.8 mph - N/A   Clear
6:15 AM 53.6 °F - N/A% 29.81 in 10.0 mi WNW 4.6 mph - N/A   Clear
6:35 AM 51.8 °F - N/A% 29.81 in 10.0 mi WNW 4.6 mph - N/A   Clear
6:55 AM 51.8 °F 51.8 °F 100% 29.81 in 10.0 mi WNW 4.6 mph - N/A   Clear
7:15 AM 51.8 °F 51.8 °F 100% 29.83 in 10.0 mi West 4.6 mph - N/A   Clear
7:35 AM 51.8 °F 51.8 °F 100% 29.84 in 10.0 mi West 4.6 mph - 0.01 in   Clear
7:55 AM 50.0 °F 50.0 °F 100% 29.84 in 10.0 mi West 3.5 mph - 0.01 in   Clear
8:15 AM 50.0 °F - N/A% 29.85 in 10.0 mi West 4.6 mph - N/A   Clear
8:35 AM 51.8 °F 50.0 °F 94% 29.85 in 10.0 mi Calm Calm - N/A   Clear
8:55 AM 53.6 °F 50.0 °F 88% 29.86 in 10.0 mi Calm Calm - N/A   Clear
9:15 AM 55.4 °F 50.0 °F 82% 29.87 in 10.0 mi Calm Calm - N/A   Clear
9:35 AM 55.4 °F 50.0 °F 82% 29.87 in 10.0 mi Calm Calm - N/A   Clear
9:55 AM 59.0 °F 50.0 °F 72% 29.88 in 10.0 mi Calm Calm - N/A   Clear
10:15 AM 60.8 °F 50.0 °F 68% 29.88 in 10.0 mi West 3.5 mph - N/A   Clear
10:35 AM 60.8 °F 51.8 °F 72% 29.88 in 10.0 mi West 4.6 mph - N/A   Clear
10:55 AM 62.6 °F 50.0 °F 63% 29.88 in 10.0 mi WNW 4.6 mph - N/A   Clear
11:15 AM 64.4 °F 50.0 °F 59% 29.89 in 10.0 mi WNW 6.9 mph - N/A   Clear
11:35 AM 64.4 °F 48.2 °F 56% 29.88 in 10.0 mi WNW 6.9 mph - N/A   Clear
11:55 AM 66.2 °F 46.4 °F 49% 29.88 in 10.0 mi WNW 5.8 mph - N/A   Clear
1:15 PM 69.8 °F 44.6 °F 40% 29.86 in 10.0 mi West 5.8 mph - N/A   Clear
1:35 PM 69.8 °F 42.8 °F 38% 29.85 in 10.0 mi West 8.1 mph - N/A   Scattered Clouds
1:55 PM 71.6 °F 39.2 °F 31% 29.84 in 10.0 mi West 10.4 mph 18.4 mph N/A   Scattered Clouds
2:15 PM 69.8 °F 37.4 °F 31% 29.84 in 10.0 mi West 11.5 mph 20.7 mph N/A   Clear
2:35 PM 69.8 °F 37.4 °F 31% 29.83 in 10.0 mi West 6.9 mph 16.1 mph N/A   Clear
2:55 PM 69.8 °F 37.4 °F 31% 29.83 in 10.0 mi West 9.2 mph 19.6 mph N/A   Clear
3:15 PM 69.8 °F 37.4 °F 31% 29.82 in 10.0 mi West 10.4 mph 20.7 mph N/A   Scattered Clouds
3:35 PM 71.6 °F 37.4 °F 29% 29.82 in 10.0 mi West 11.5 mph 19.6 mph N/A   Scattered Clouds
3:55 PM 64.4 °F 37.4 °F 37% 29.85 in 10.0 mi NW 16.1 mph 29.9 mph N/A Rain Light Rain
4:15 PM 60.8 °F 44.6 °F 55% 29.86 in 10.0 mi WNW 8.1 mph - N/A Rain Light Rain
4:35 PM 60.8 °F 42.8 °F 52% 29.85 in 10.0 mi West 12.7 mph 27.6 mph N/A   Light Drizzle
4:55 PM 62.6 °F 42.8 °F 48% 29.85 in 10.0 mi West 3.5 mph - N/A   Scattered Clouds
5:15 PM 62.6 °F 42.8 °F 48% 29.84 in 10.0 mi WSW 4.6 mph - N/A   Scattered Clouds
5:35 PM 62.6 °F 42.8 °F 48% 29.85 in 10.0 mi West 5.8 mph - N/A   Scattered Clouds
5:55 PM 62.6 °F 42.8 °F 48% 29.86 in 10.0 mi West 6.9 mph - N/A   Scattered Clouds
6:15 PM 60.8 °F 42.8 °F 52% 29.87 in 10.0 mi West 6.9 mph - N/A   Scattered Clouds
6:35 PM 60.8 °F 44.6 °F 55% 29.88 in 10.0 mi West 6.9 mph - N/A   Clear
6:55 PM 59.0 °F 44.6 °F 59% 29.88 in 10.0 mi West 5.8 mph - N/A   Clear
7:15 PM 57.2 °F 44.6 °F 63% 29.90 in 10.0 mi WNW 6.9 mph - N/A   Clear
7:35 PM 59.0 °F 41.0 °F 51% 29.91 in 10.0 mi NW 5.8 mph - N/A   Scattered Clouds
7:55 PM 59.0 °F 41.0 °F 51% 29.93 in 10.0 mi NNW 4.6 mph - N/A   Scattered Clouds
8:15 PM 55.4 °F 41.0 °F 58% 29.94 in 10.0 mi NNW 3.5 mph - N/A   Clear
8:35 PM 53.6 °F 41.0 °F 62% 29.95 in 10.0 mi NNW 5.8 mph - N/A   Clear
8:55 PM 55.4 °F 41.0 °F 58% 29.96 in 10.0 mi NNW 4.6 mph - N/A   Clear
9:15 PM 53.6 °F 41.0 °F 62% 29.98 in 10.0 mi NNW 3.5 mph - N/A   Mostly Cloudy
9:35 PM 53.6 °F 41.0 °F 62% 29.98 in 10.0 mi NNW 3.5 mph - N/A   Scattered Clouds
9:55 PM 51.8 °F 41.0 °F 67% 29.99 in 10.0 mi NNW 4.6 mph - N/A   Clear
10:15 PM 51.8 °F 39.2 °F 62% 29.99 in 10.0 mi NNW 3.5 mph - N/A   Clear
10:35 PM 51.8 °F 41.0 °F 67% 30.00 in 10.0 mi NNW 4.6 mph - N/A   Clear
10:55 PM 51.8 °F 39.2 °F 62% 30.01 in 10.0 mi NNW 4.6 mph - N/A   Clear
11:15 PM 50.0 °F 39.2 °F 66% 30.01 in 10.0 mi NNW 5.8 mph - N/A   Clear
11:35 PM 51.8 °F 37.4 °F 58% 30.02 in 10.0 mi NNW 5.8 mph - N/A   Clear
11:55 PM 51.8 °F 37.4 °F 58% 30.02 in 10.0 mi North 4.6 mph - N/A   Clear